Meath Environmental Platform

Observations for Trim Market St

Time AQI Temp °C Hum % Pres Pa CO μg/m³ H₂S μg/m³ NO μg/m³ NO₂ μg/m³ O₃ μg/m³ SO₂ μg/m³ PM1 μg/m³ PM2.5 μg/m³ PM10 μg/m³
Tuesday 14 July 2026
03:13 1 16.9 72 53,280 0.1 0 0 5.42 20.86 0 1.43 3.45 5.68
03:12 1 16.9 72 53,349 0.1 0 0 4.72 20.72 0 1.43 2.96 5.68
03:11 1 16.9 72 53,380 0.09 0 0 5.24 21.14 0 1.43 2.49 4.45
03:10 1 16.9 72 53,433 0.1 0 0 5.44 19.69 0 2.14 3.45 5.68
03:09 1 16.9 72 53,451 0.1 0 0.66 4.84 20.39 0 1.43 2.97 6.91
03:07 1 16.9 72 53,565 0.09 0 0 5.15 19.68 0 1.43 2.97 5.68
03:05 1 16.9 72 53,743 0.08 0 0 6.06 21.49 0 2.85 3.95 6.91
03:01 1 16.9 71 54,116 0.08 0 0 6.29 22.55 0 2.14 3.96 6.91
02:58 1 16.9 71 54,487 0.1 0 0 7.03 24.65 0 2.85 3.98 7.53
02:55 1 16.9 71 54,835 0.09 0 0 5.24 19.68 0 1.43 3.5 6.91
02:52 1 17 71 55,059 0.09 0 0 5.22 20.04 0 2.14 3.5 5.66
02:46 1 17.1 70 55,248 0.08 0 0 4.23 19.19 0 1.43 3.52 6.28
02:45 1 17.1 70 55,270 0.08 0 0 4.64 20.06 0 1.43 4.01 6.28
02:44 1 17.1 70 55,298 0.09 0 0 4.44 20.44 0 2.14 3.52 6.28
02:43 1 17.1 70 55,311 0.09 0 0 5.34 21.59 0 2.85 4.01 8.15
02:42 1 17.1 70 55,350 0.08 0 0 5.05 19.86 0 1.43 2.55 5.66
02:41 1 17.1 70 55,390 0.09 0 0.02 4.15 20.74 0 2.14 4.01 7.53
02:40 1 17.1 70 55,418 0.08 0 0 5.55 20.16 0 2.85 3.53 5.66
02:39 1 17.1 70 55,470 0.1 0 0 5.56 21.35 0 2.14 4.02 6.9
02:38 1 17.1 70 55,502 0.08 0 0 4.46 19.29 0 2.14 4.02 6.9